Wind_Speed
36 36 37 38 40 42 43 44 44 44 43 43 42 41 40 38 36 34 32 31 32 33 35 34 31 29 29 30 32 34 34 32 29 27 25 24 23 23 22 20 19 20 22 24 24 24 24 23 22 21 19 18 17 16 16 16 15 15 15 15 15 15 15 15 15 15 15 15 15
38 39 40 41 42 43 44 44 44 44 43 42 42 41 40 38 35 33 31 30 30 32 34 36 33 30 28 28 31 33 34 33 31 28 26 25 24 24 23 21 20 20 22 24 25 25 25 24 22 21 19 17 16 16 15 15 15 15 15 15 15 15 16 16 16 16 16 16 16
41 41 42 43 43 43 43 43 43 43 42 42 41 40 39 37 35 33 31 30 31 32 34 36 34 31 28 26 28 32 34 35 33 29 26 25 25 24 24 23 21 19 19 21 24 25 24 23 22 21 20 18 16 15 13 13 12 12 13 13 14 14 15 16 16 16 17 17 17
43 43 43 43 43 42 42 42 42 42 41 41 40 39 38 36 33 32 32 33 33 34 35 35 34 32 28 26 26 28 33 35 35 31 27 24 24 25 25 24 21 18 16 17 19 21 22 22 21 21 21 19 18 16 14 13 12 11 11 11 11 13 14 15 16 17 18 18 18
44 43 43 42 42 41 41 41 41 40 40 39 38 38 37 35 32 32 33 34 35 36 36 35 35 33 30 26 24 25 29 33 36 34 30 25 25 25 25 21 16 13 12 13 15 17 18 19 19 19 19 19 18 17 17 17 16 16 14 12 12 13 14 15 16 17 18 18 18
43 42 41 41 40 40 40 39 39 38 38 37 36 36 35 33 32 32 33 34 36 36 36 36 35 33 31 28 25 23 25 29 34 36 35 31 27 25 21 16 13 12 13 15 15 15 16 15 15 14 14 15 16 17 18 19 20 20 19 16 14 14 14 15 15 16 17 18 19
41 40 39 39 38 38 38 38 37 37 36 35 34 33 32 31 30 30 31 32 34 34 35 35 34 33 32 31 27 24 22 24 30 34 37 37 34 29 23 17 15 15 16 17 17 16 15 14 13 13 13 14 15 16 18 19 20 21 20 18 17 15 14 15 16 17 18 19 19
38 37 37 37 36 36 36 36 35 35 34 33 32 31 30 28 27 27 28 29 30 31 32 32 32 32 32 32 30 26 22 20 24 30 34 37 38 36 30 23 19 19 20 20 19 18 16 16 15 16 16 18 18 19 19 20 20 21 21 20 18 16 15 15 16 18 19 21 21
36 35 35 35 35 34 34 34 33 33 32 31 30 29 28 26 25 24 26 27 29 29 29 29 30 30 31 32 31 27 22 18 19 23 28 32 35 34 32 28 25 24 25 24 23 22 20 19 18 19 20 21 21 22 21 21 20 20 19 18 16 15 15 16 17 18 20 22 24
34 33 33 33 33 33 33 33 32 32 31 30 30 29 28 26 24 24 24 26 27 28 28 27 27 28 29 30 30 28 23 17 14 16 21 25 28 29 28 28 27 27 27 26 25 24 23 22 21 21 21 21 21 21 21 20 19 17 16 15 15 16 17 18 19 20 22 23 24
32 31 31 31 32 32 32 32 32 31 31 31 31 30 29 27 26 25 24 25 26 27 28 27 27 27 28 29 30 29 26 20 14 14 17 20 24 26 27 27 28 28 27 26 25 24 22 21 20 20 19 18 18 18 18 18 17 16 15 16 18 19 20 21 22 23 23 23 24
30 30 30 30 31 31 31 31 32 32 32 32 32 31 30 29 27 26 25 25 26 26 27 27 27 27 27 27 29 29 28 25 21 18 18 19 23 26 28 28 28 28 27 26 25 23 22 21 20 18 17 15 16 17 18 18 17 17 18 19 20 20 21 23 23 24 24 24 24
29 29 30 30 31 31 32 32 32 32 32 32 32 32 31 30 28 27 25 25 25 25 25 26 27 27 27 26 27 27 28 27 26 24 23 22 23 26 28 29 29 28 28 26 25 24 23 22 21 20 18 17 17 18 19 19 19 19 20 20 20 20 21 22 23 24 24 24 25
28 29 30 30 31 32 33 33 33 33 33 33 32 32 31 30 29 27 26 25 24 24 24 24 25 25 26 25 25 25 26 27 27 28 28 27 26 26 27 28 29 29 28 27 26 25 23 23 22 21 20 20 21 21 20 19 20 20 19 19 19 19 20 21 21 22 23 24 25
28 29 30 31 32 33 33 34 34 34 33 33 32 32 31 30 29 28 26 25 24 23 23 23 23 23 22 22 23 23 25 26 28 30 32 32 30 29 29 29 29 29 29 28 26 25 23 22 20 20 20 20 21 21 21 20 20 19 18 17 17 18 18 19 19 20 21 22 24
29 29 30 31 32 33 33 34 34 34 33 33 32 31 30 30 29 28 27 25 24 23 22 22 21 20 19 18 18 19 21 23 26 28 31 32 32 32 32 32 32 31 30 28 26 24 22 20 19 18 18 18 19 19 20 19 17 16 15 16 16 17 18 18 18 18 18 19 20
29 30 30 31 32 33 33 33 33 33 33 32 31 30 30 29 28 27 26 25 24 23 22 21 19 18 17 16 14 14 15 17 19 21 23 25 27 28 30 31 31 31 30 28 25 23 21 20 19 18 18 18 18 18 17 15 14 14 14 15 16 17 17 18 18 17 17 17 17
29 30 30 31 32 32 33 33 34 34 33 32 31 30 29 27 26 25 24 23 22 22 21 20 18 15 13 12 13 12 12 12 13 13 14 15 17 20 22 24 26 27 27 26 24 23 22 21 20 20 20 19 17 16 15 13 13 14 15 15 16 16 17 17 17 17 17 16 16
29 29 30 30 31 32 33 34 34 34 33 31 30 29 27 25 24 23 22 21 20 20 19 18 16 12 9 8 10 11 11 11 10 10 9 9 11 13 16 17 19 21 23 23 23 23 22 22 22 22 21 19 17 15 14 14 14 15 15 15 15 15 16 16 16 16 16 16 16
29 29 30 30 31 32 33 34 34 33 32 30 29 28 26 24 23 22 20 19 19 18 17 15 13 11 8 6 6 6 8 8 9 10 9 8 9 11 13 15 17 19 21 22 22 22 22 22 22 21 20 18 16 14 14 15 15 15 14 14 14 14 14 14 14 14 15 15 16
29 29 30 30 31 32 33 33 33 32 30 28 28 27 26 25 24 22 20 18 17 17 14 12 10 8 7 6 5 2 2 2 3 6 8 9 9 11 13 15 16 18 19 20 20 20 21 20 20 20 18 16 14 13 13 13 13 13 13 13 13 13 13 13 13 13 13 14 15
29 29 30 30 31 31 32 31 31 30 28 27 26 26 26 26 26 23 19 16 16 15 14 12 11 9 6 5 5 3 1 4 5 6 7 8 10 11 13 14 16 17 18 19 20 20 20 19 18 17 16 14 12 11 11 11 12 13 13 13 13 13 13 12 12 12 12 12 12
28 29 29 30 30 31 31 30 29 28 26 26 26 26 27 27 26 24 19 16 15 15 16 16 16 14 11 7 3 3 1 2 4 5 6 7 9 10 12 13 14 15 16 17 18 18 18 18 17 15 14 12 11 12 12 12 12 11 11 11 11 11 11 11 11 10 10 10 10
28 29 29 29 30 30 29 28 27 26 25 25 26 26 26 27 26 24 21 17 15 16 17 18 18 18 16 13 9 6 5 6 6 6 6 7 8 9 9 10 10 10 11 11 12 13 14 14 13 13 12 12 12 12 11 10 8 7 7 6 7 7 7 8 8 8 8 8 9
28 28 28 28 29 29 28 27 26 25 25 25 25 25 25 26 25 25 23 20 18 18 18 18 18 17 17 15 13 12 12 13 13 13 13 13 13 12 12 11 11 10 9 8 7 8 9 9 10 10 10 11 10 10 8 7 6 5 4 4 4 4 5 5 6 7 7 8 10
27 27 27 27 27 28 28 27 25 24 24 24 24 24 25 24 24 24 23 22 21 20 19 18 17 15 14 13 13 15 17 18 20 20 21 21 20 19 18 17 15 13 12 10 9 9 10 10 10 10 11 11 10 9 8 7 6 5 5 5 5 4 5 5 5 6 7 8 9
26 26 25 26 26 27 28 27 26 24 24 24 24 24 24 23 23 23 23 23 23 22 20 19 16 14 12 12 13 16 19 21 22 23 23 23 23 22 21 20 19 16 14 11 9 9 9 10 11 11 11 11 10 9 7 6 5 4 4 4 4 3 3 3 3 3 4 4 5
26 25 24 25 26 27 28 28 27 25 24 24 24 23 23 22 22 22 22 22 22 22 21 19 17 15 15 16 17 19 20 20 21 22 22 22 22 21 21 20 19 17 14 11 10 9 9 9 9 10 9 9 8 7 6 5 4 3 3 3 2 2 2 2 3 4 4 4 4
26 25 24 24 25 26 27 28 28 26 25 24 23 22 22 22 21 21 21 21 22 22 22 20 18 16 16 18 19 20 20 20 20 19 19 19 19 19 19 19 17 15 13 11 11 10 10 10 9 9 8 7 7 6 5 4 3 3 2 1 1 1 2 3 4 5 6 6 6
26 25 24 24 24 25 26 27 28 27 25 23 22 22 22 22 22 21 20 20 21 21 21 21 19 16 15 16 16 17 18 19 19 19 18 18 18 18 18 17 17 16 14 12 11 11 11 11 11 10 9 8 7 6 5 4 3 3 3 3 4 4 5 5 5 5 6 7 7
26 25 25 25 25 25 26 26 27 27 25 23 22 21 21 22 23 21 19 18 19 19 20 20 19 18 17 16 15 15 14 15 15 16 16 16 16 15 15 15 15 15 15 13 13 12 12 11 12 12 11 10 9 8 7 6 6 6 7 7 8 8 8 8 7 6 5 5 5
25 25 25 26 26 26 26 26 26 26 25 23 21 20 21 22 22 21 19 18 17 18 18 19 19 19 19 18 18 17 16 16 15 15 15 15 14 13 12 12 12 13 13 14 13 13 12 11 11 11 11 10 10 9 8 8 8 8 8 8 9 9 9 8 7 5 3 2 2
25 25 26 27 27 27 27 26 26 25 25 23 21 19 19 20 21 21 20 18 17 17 17 18 18 18 19 19 19 19 19 19 19 19 18 17 17 16 15 15 14 14 14 13 13 12 12 11 11 10 9 9 8 8 8 8 8 7 7 7 7 8 7 7 5 2 1 2 2
26 26 27 27 28 28 28 27 25 24 24 23 21 19 18 19 21 22 21 19 17 16 16 17 17 17 17 18 18 19 20 20 21 21 21 21 20 19 18 17 16 15 14 13 12 11 10 10 9 8 8 7 6 5 5 6 6 6 6 6 6 6 6 5 3 1 3 4 4
27 27 27 28 28 28 28 27 25 24 23 22 22 20 18 18 20 21 21 20 18 16 15 15 15 15 15 15 16 17 18 19 20 21 22 22 22 21 19 18 16 14 13 11 10 9 9 8 7 6 6 6 4 2 2 3 4 4 5 5 5 5 5 4 1 2 4 5 5
27 27 28 28 28 28 27 26 25 23 22 21 22 21 20 18 19 20 20 19 19 18 16 14 13 12 13 13 14 16 17 18 19 20 21 21 21 20 18 16 14 12 11 10 8 8 8 6 4 4 5 5 2 0 0 1 2 3 4 5 6 6 6 5 3 2 3 5 5
27 27 27 27 27 27 26 26 25 23 22 21 21 22 21 19 18 19 19 19 19 20 18 16 13 12 12 13 13 15 16 17 18 18 19 20 20 19 17 15 13 11 9 10 9 8 7 4 3 3 4 4 1 1 1 1 2 3 4 5 6 7 7 8 7 6 4 3 2
26 26 26 26 26 26 26 26 25 24 22 20 20 21 20 19 19 18 18 18 18 19 19 17 15 13 13 13 14 14 15 16 17 17 18 19 19 17 16 15 13 11 9 10 10 9 6 2 2 2 3 3 1 2 2 2 3 4 4 5 6 7 8 10 11 10 9 7 5
26 26 26 26 26 25 26 26 26 24 22 21 20 20 20 19 18 18 18 17 17 17 17 17 16 15 14 14 14 15 16 16 16 16 17 17 16 16 15 14 13 11 9 9 11 10 6 2 1 1 2 3 2 1 1 2 3 4 5 6 6 6 7 10 11 12 12 11 9
26 26 25 25 25 25 26 26 26 24 22 21 20 20 19 19 18 18 17 17 16 16 15 15 15 15 15 14 14 15 15 15 15 15 15 15 14 13 13 14 13 11 9 8 10 10 7 5 3 4 4 5 4 2 0 2 4 5 6 6 6 5 5 7 9 10 11 11 10
26 25 25 25 25 25 25 26 25 24 23 21 21 20 19 18 18 18 17 17 16 15 15 14 14 14 14 13 13 13 13 13 12 12 12 13 12 12 12 13 13 11 9 7 10 10 8 6 6 6 7 7 7 5 1 3 5 7 7 7 6 5 4 4 5 6 7 7 7
Wind_Direction
320 320 320 321 322 323 323 323 322 322 320 319 317 315 314 311 309 308 306 306 304 303 301 298 297 297 296 291 284 278 274 272 273 270 263 254 247 243 240 238 239 239 236 233 230 229 229 230 231 231 230 228 227 226 227 230 233 235 237 240 241 243 245 246 248 249 249 249 248
321 322 322 323 323 322 322 321 320 319 318 317 315 314 312 309 308 306 306 305 303 301 299 296 295 294 294 291 285 280 275 272 271 269 263 256 248 240 233 227 226 228 230 230 229 228 228 229 230 229 226 224 223 225 227 230 234 237 239 241 242 243 244 246 248 249 250 250 250
323 324 324 324 323 322 321 320 318 317 316 315 314 312 310 308 306 305 303 302 300 297 296 294 292 291 289 286 283 280 276 273 270 267 261 252 243 233 224 215 210 209 214 219 221 223 224 225 227 227 227 226 227 229 233 236 238 241 244 246 247 247 247 247 248 248 249 249 249
325 325 325 324 322 321 319 318 317 316 315 314 313 311 310 308 306 303 300 297 295 293 293 292 290 289 286 282 277 275 274 272 269 265 257 245 233 223 214 206 200 197 200 206 211 215 219 222 224 226 228 227 229 232 236 239 241 245 249 253 255 256 256 255 253 252 251 251 251
326 325 324 322 321 319 318 316 315 315 314 314 312 311 310 308 307 304 299 294 292 291 290 290 289 287 285 282 276 270 269 269 268 264 256 243 228 218 211 206 205 207 209 210 213 218 222 225 227 227 227 227 227 228 231 236 241 244 247 252 258 263 265 265 262 259 257 256 254
325 324 322 321 319 318 317 316 316 315 315 314 313 311 310 309 307 304 299 295 292 290 290 289 288 285 284 283 280 272 265 264 265 263 258 248 235 224 218 218 228 235 236 233 231 231 232 233 232 230 227 224 223 224 226 231 235 238 240 243 249 259 267 271 271 269 265 262 259
324 322 321 320 319 319 318 318 318 317 316 315 314 313 311 310 308 305 302 298 295 293 292 290 288 284 281 281 282 279 269 260 259 259 257 252 244 237 232 231 234 239 240 237 236 236 238 239 238 238 238 235 231 227 226 228 231 234 236 238 241 249 260 267 271 272 270 267 263
323 322 321 321 321 322 322 322 321 320 319 318 317 315 313 311 311 310 308 305 301 299 296 294 290 285 281 278 280 281 275 261 253 253 253 251 247 244 240 233 228 227 230 231 233 235 238 241 242 242 243 243 242 240 239 239 241 242 242 241 242 245 253 259 262 264 265 265 263
324 324 324 325 326 326 326 326 325 324 323 322 321 319 316 314 313 313 312 310 307 304 301 298 293 287 281 277 277 278 275 263 249 244 245 245 244 241 238 231 225 223 225 229 232 235 237 239 240 240 240 240 241 244 247 251 254 254 251 249 248 249 252 254 254 254 255 258 259
327 328 329 330 331 331 331 330 329 328 328 327 327 324 321 318 315 313 312 311 309 307 305 302 297 290 283 277 275 274 272 263 246 235 233 233 233 232 229 225 222 222 225 229 232 236 238 238 236 235 234 234 237 242 249 255 258 257 254 251 250 250 249 248 248 247 248 250 252
333 334 335 336 337 336 335 334 334 334 334 333 332 330 327 322 318 314 312 311 310 308 307 306 303 297 289 281 275 271 268 263 251 234 223 218 218 218 219 218 219 220 223 226 230 233 235 235 231 229 227 228 232 240 249 256 256 252 247 246 247 246 246 245 244 244 243 243 245
338 339 340 341 341 340 339 339 339 339 338 337 335 334 331 328 323 318 315 312 311 309 309 308 307 304 297 288 279 271 266 262 256 244 228 215 211 212 214 215 217 219 222 225 227 229 231 230 227 224 222 221 227 239 249 254 252 247 244 244 245 245 244 244 243 242 242 242 242
342 344 345 345 345 344 344 343 343 342 340 338 337 335 333 331 327 323 318 315 312 310 309 308 308 306 302 296 286 277 269 262 257 249 240 229 220 217 217 218 220 222 224 227 228 229 229 228 227 226 224 224 230 238 246 249 247 244 244 244 245 245 244 244 244 244 243 242 242
345 347 348 348 348 347 346 346 344 342 341 339 337 336 334 332 330 326 322 317 314 311 310 308 307 305 303 299 293 285 277 269 261 253 246 241 234 229 227 226 227 228 230 231 231 231 230 229 229 229 230 231 234 236 238 240 240 240 241 243 244 245 246 246 247 246 244 242 242
348 350 351 351 350 349 348 347 345 343 341 339 338 337 335 333 331 329 325 321 316 313 311 309 307 305 302 299 294 288 282 275 266 255 248 244 242 241 240 238 237 236 236 235 234 233 231 230 230 231 230 229 229 228 228 229 232 235 238 241 244 246 247 248 247 246 244 243 241
351 352 353 353 352 350 349 348 346 344 341 340 339 338 336 334 333 331 328 325 320 316 313 311 308 306 304 301 295 285 276 267 259 251 245 243 244 245 246 245 244 241 239 237 234 232 229 227 226 225 222 219 218 218 218 220 224 230 237 243 246 246 246 245 244 243 242 242 241
353 353 353 353 352 351 350 348 346 344 342 341 340 340 338 336 334 333 331 328 324 320 316 312 307 306 306 305 297 282 265 252 244 240 239 240 242 244 245 245 243 241 238 234 230 226 222 219 215 213 211 209 210 211 213 215 222 234 243 247 247 245 243 242 241 241 241 241 240
353 352 352 353 352 351 350 348 347 345 343 343 343 343 342 340 338 335 333 331 329 325 320 314 307 303 304 307 301 288 269 249 235 228 229 233 234 236 237 237 236 234 231 225 220 215 212 210 207 206 207 208 210 213 217 224 236 246 250 249 245 242 241 241 241 242 242 242 240
352 352 352 352 352 351 350 349 347 346 345 345 347 348 348 347 344 341 339 338 337 334 328 319 308 299 296 301 300 297 289 272 252 235 223 220 220 220 219 218 216 214 212 210 206 205 206 206 206 207 209 211 215 221 228 237 246 251 250 245 240 238 239 242 243 244 244 245 244
352 351 351 352 351 350 350 349 347 346 346 348 352 356 357 356 354 351 349 349 349 346 339 330 316 300 286 277 284 301 307 296 274 253 237 223 216 209 203 198 194 194 196 197 197 199 201 203 205 208 210 214 220 227 236 244 247 246 241 235 233 235 238 241 244 245 246 247 246
352 351 351 351 350 350 349 349 348 347 349 352 359 3 6 5 3 0 359 1 1 358 354 349 338 318 293 269 257 281 357 352 257 237 229 223 216 207 199 193 190 189 191 194 195 196 197 199 201 204 210 217 225 231 237 239 235 229 224 223 225 229 234 239 243 244 245 244 245
351 351 350 350 350 350 349 349 349 350 352 357 4 9 11 10 8 7 7 12 14 14 14 15 11 358 335 297 264 257 100 105 135 169 194 204 204 200 196 193 191 191 192 192 191 190 190 190 193 198 206 213 216 217 215 212 208 207 208 211 217 223 229 234 236 237 237 239 242
351 350 350 350 350 350 349 350 351 352 355 1 8 12 12 12 10 9 12 20 26 27 27 27 26 24 19 7 329 290 287 100 124 148 170 181 186 188 187 185 182 180 178 178 179 179 180 181 184 189 192 190 185 183 184 188 191 196 202 209 216 223 227 229 228 228 230 234 237
350 350 351 351 351 351 350 351 353 355 358 4 10 14 14 12 11 10 13 21 28 30 28 27 27 28 29 33 39 48 62 69 80 96 118 134 145 150 151 149 144 143 147 153 160 166 170 172 173 172 168 163 160 161 165 171 178 187 197 208 217 222 223 220 219 220 223 223 219
351 351 352 353 353 352 352 353 355 358 0 5 11 16 17 14 11 11 13 17 22 24 24 24 24 24 27 35 47 62 72 75 76 80 86 92 96 98 98 95 89 85 85 94 113 129 138 141 142 140 137 135 135 136 138 141 147 155 164 173 181 189 193 196 200 202 203 199 192
352 353 354 354 354 354 354 354 356 358 1 5 12 18 20 16 13 12 13 15 17 19 21 24 25 25 28 36 51 67 78 81 81 79 79 79 79 80 79 76 71 64 59 62 74 88 96 101 105 108 111 112 112 113 115 119 124 132 140 148 155 162 170 178 185 190 191 191 188
354 354 355 355 355 356 355 355 356 358 1 5 12 20 23 20 14 12 12 14 15 17 21 25 31 37 46 56 68 78 84 86 85 82 79 76 74 74 74 73 71 66 61 56 57 65 76 82 87 91 95 98 100 102 106 112 121 134 147 156 164 173 183 192 201 207 208 208 207
355 355 355 355 356 356 356 355 356 358 1 5 11 20 26 24 18 13 12 12 13 15 18 24 34 48 64 76 82 86 89 89 88 86 83 80 76 72 70 69 69 68 65 60 54 51 55 62 69 74 80 85 91 96 101 110 122 139 154 164 175 199 231 256 268 272 275 275 272
355 355 355 355 356 356 356 356 356 357 358 2 9 19 27 28 22 15 12 11 11 12 13 17 24 39 55 67 75 82 86 87 87 87 86 83 79 74 69 65 61 58 57 56 53 47 42 41 45 52 59 68 77 86 93 99 105 111 113 108 84 340 312 303 298 296 296 297 300
355 355 355 356 356 356 356 356 355 355 355 359 7 16 25 29 26 20 14 12 11 10 8 8 10 18 29 40 52 61 68 73 76 78 78 78 77 75 71 66 59 51 44 42 43 43 40 35 30 30 33 36 41 48 52 52 46 33 19 6 355 346 338 331 322 314 308 304 302
354 355 355 355 355 355 355 354 353 353 352 355 3 13 22 28 28 24 19 15 13 9 5 3 4 7 11 14 20 28 35 43 49 53 56 58 60 62 63 61 57 50 42 34 31 33 35 33 27 23 20 15 12 10 8 5 360 354 350 346 342 340 338 335 332 327 318 307 299
354 354 355 355 355 354 353 352 352 351 351 352 358 8 17 24 27 26 23 19 15 11 7 4 4 5 6 6 6 7 8 10 12 16 20 24 27 28 28 28 31 33 32 29 25 22 22 23 22 21 17 12 6 1 356 352 347 343 338 334 332 332 333 336 337 335 326 301 273
354 354 354 354 353 352 351 351 351 351 350 350 354 2 11 18 23 25 25 22 19 15 11 8 6 6 7 7 6 5 4 2 1 1 1 1 1 360 359 359 0 5 11 16 18 16 13 11 12 15 16 13 6 358 349 343 338 333 328 323 320 320 323 329 332 327 244 188 190
353 353 352 352 351 350 350 350 351 351 351 350 351 356 4 10 15 18 21 21 20 18 14 10 7 7 7 8 8 8 7 5 4 3 2 1 359 357 355 356 358 1 6 12 17 16 10 4 5 10 16 17 12 1 347 338 335 331 327 322 320 321 324 326 321 244 188 181 177
352 352 351 349 349 349 349 350 351 352 353 352 352 353 357 4 7 11 14 17 18 18 14 10 6 5 5 6 6 7 8 8 7 6 5 5 3 2 1 3 6 11 18 23 26 22 12 2 4 13 22 24 26 15 346 338 340 339 338 337 341 347 352 353 337 190 183 178 172
352 351 350 348 348 349 351 352 352 353 354 355 355 354 355 359 2 5 7 11 14 16 15 11 6 4 4 5 5 5 6 7 6 5 5 4 4 4 6 8 15 24 32 33 30 21 9 356 355 11 22 22 33 74 226 6 12 6 360 359 6 16 29 44 73 129 163 171 167
353 351 350 350 350 352 354 355 356 356 357 357 357 357 356 358 0 2 3 5 10 14 16 15 12 10 8 7 7 6 5 4 4 3 3 2 3 4 6 9 15 25 32 27 23 17 7 346 324 337 358 10 34 164 170 98 57 40 29 25 28 39 55 71 82 89 102 126 143
355 354 353 353 354 356 358 360 360 359 358 358 358 358 358 358 360 2 3 4 7 10 13 15 14 13 10 9 9 8 7 5 4 3 2 2 2 4 6 9 13 19 27 29 24 17 8 332 272 292 335 1 45 163 166 125 89 71 60 51 49 57 73 88 93 94 93 92 86
358 358 357 358 359 0 2 2 2 1 360 358 358 358 358 359 359 1 3 5 6 7 9 11 11 10 8 7 8 9 9 10 9 8 6 5 5 7 10 13 15 20 30 39 31 22 13 3 289 310 356 23 41 125 172 150 118 100 87 76 71 75 89 102 108 106 102 99 94
1 1 1 1 2 3 3 3 3 2 1 360 359 358 357 357 357 358 360 3 4 4 4 6 6 5 4 5 8 10 13 15 16 15 12 9 8 10 13 16 18 23 34 45 35 28 23 21 17 22 29 31 26 12 279 173 142 122 108 96 94 97 107 117 121 116 109 105 101
2 2 2 3 3 3 3 2 2 1 1 1 1 358 355 354 353 353 355 357 358 359 359 359 0 1 1 4 7 11 15 18 20 17 12 7 4 6 11 17 19 22 29 41 36 33 34 37 36 34 31 25 19 14 18 167 152 135 121 113 114 121 128 133 137 134 128 121 109
Height
1474 1472 1471 1469 1467 1465 1463 1462 1460 1459 1457 1455 1453 1451 1450 1448 1447 1445 1444 1443 1442 1440 1439 1437 1436 1436 1436 1436 1436 1436 1435 1434 1433 1433 1432 1431 1431 1432 1433 1434 1435 1436 1436 1435 1434 1435 1435 1436 1437 1437 1438 1439 1440 1440 1441 1441 1442 1442 1443 1443 1443 1444 1444 1444 1445 1445 1445 1446 1446
1472 1471 1469 1468 1466 1464 1462 1460 1458 1457 1455 1453 1451 1450 1448 1447 1445 1443 1442 1441 1440 1438 1437 1435 1434 1433 1433 1433 1434 1434 1433 1433 1432 1431 1430 1429 1429 1429 1430 1432 1433 1434 1435 1434 1433 1433 1433 1433 1434 1435 1436 1437 1438 1439 1439 1439 1440 1440 1441 1441 1442 1442 1443 1443 1443 1444 1444 1444 1445
1471 1469 1467 1465 1463 1462 1460 1458 1456 1454 1452 1451 1449 1448 1446 1444 1443 1442 1440 1439 1438 1436 1435 1433 1432 1431 1430 1430 1431 1431 1431 1431 1431 1430 1429 1428 1427 1427 1428 1429 1431 1432 1433 1432 1431 1431 1431 1431 1432 1433 1434 1435 1436 1437 1437 1438 1438 1439 1439 1440 1440 1441 1441 1441 1442 1442 1443 1443 1443
1468 1467 1465 1463 1461 1459 1458 1456 1454 1452 1450 1448 1447 1445 1444 1442 1441 1440 1438 1436 1435 1433 1433 1431 1430 1429 1428 1428 1428 1428 1429 1428 1429 1428 1428 1426 1425 1425 1426 1427 1428 1428 1429 1430 1430 1429 1429 1429 1430 1431 1432 1433 1434 1435 1435 1436 1437 1437 1438 1438 1439 1439 1440 1440 1440 1441 1441 1442 1442
1466 1465 1463 1461 1459 1458 1456 1454 1452 1450 1448 1446 1444 1443 1441 1440 1439 1437 1435 1433 1432 1431 1430 1429 1428 1427 1427 1426 1425 1425 1426 1426 1426 1426 1426 1425 1424 1423 1424 1424 1424 1425 1426 1427 1428 1428 1428 1428 1428 1429 1430 1431 1432 1433 1433 1434 1435 1436 1437 1437 1438 1438 1438 1439 1439 1439 1440 1440 1440
1464 1463 1461 1459 1458 1456 1454 1452 1450 1448 1446 1444 1442 1441 1439 1438 1436 1435 1433 1431 1429 1428 1427 1427 1426 1425 1424 1424 1423 1422 1423 1423 1423 1423 1423 1423 1422 1422 1421 1422 1423 1424 1425 1426 1426 1427 1427 1427 1427 1427 1428 1429 1429 1430 1431 1433 1434 1435 1436 1436 1437 1437 1438 1438 1438 1438 1438 1438 1439
1463 1461 1459 1458 1456 1454 1452 1450 1448 1446 1444 1442 1440 1438 1437 1435 1433 1432 1430 1429 1427 1426 1425 1424 1423 1423 1422 1422 1421 1420 1420 1420 1420 1420 1420 1420 1420 1420 1420 1421 1422 1423 1424 1424 1425 1426 1426 1426 1426 1426 1427 1428 1428 1429 1430 1431 1433 1433 1434 1435 1435 1436 1436 1436 1436 1437 1437 1437 1438
1462 1460 1458 1456 1454 1452 1450 1448 1446 1444 1442 1440 1438 1436 1434 1433 1431 1430 1428 1427 1425 1424 1423 1422 1421 1420 1420 1419 1419 1418 1418 1417 1418 1418 1418 1417 1418 1418 1418 1419 1420 1421 1422 1423 1424 1424 1424 1424 1424 1425 1425 1426 1427 1428 1428 1429 1430 1431 1432 1432 1433 1433 1434 1435 1435 1435 1435 1436 1436
1460 1458 1456 1454 1452 1450 1448 1446 1444 1442 1440 1438 1436 1434 1433 1431 1429 1428 1426 1424 1423 1422 1421 1420 1419 1418 1418 1417 1417 1417 1416 1415 1416 1416 1415 1415 1415 1415 1415 1416 1417 1418 1419 1420 1421 1421 1422 1422 1423 1423 1424 1425 1425 1426 1426 1427 1427 1428 1429 1430 1431 1432 1433 1433 1433 1434 1434 1435 1435
1458 1456 1454 1452 1450 1448 1447 1444 1443 1441 1438 1437 1434 1433 1431 1429 1427 1426 1424 1423 1422 1420 1419 1418 1417 1416 1415 1415 1415 1414 1414 1414 1414 1414 1414 1413 1413 1413 1413 1413 1414 1415 1416 1418 1418 1419 1420 1421 1421 1422 1423 1423 1423 1423 1424 1424 1425 1426 1427 1428 1429 1431 1431 1432 1432 1433 1433 1433 1433
1457 1455 1453 1451 1449 1447 1445 1443 1441 1439 1437 1435 1433 1431 1429 1427 1426 1424 1423 1421 1420 1418 1417 1416 1415 1414 1413 1413 1413 1413 1412 1412 1412 1413 1413 1413 1412 1411 1412 1412 1413 1413 1414 1415 1416 1418 1418 1419 1420 1421 1421 1421 1421 1421 1421 1422 1423 1424 1426 1427 1428 1429 1429 1430 1430 1431 1431 1431 1431
1456 1454 1453 1451 1449 1447 1444 1442 1440 1438 1436 1434 1432 1430 1428 1426 1424 1423 1421 1419 1418 1417 1416 1414 1413 1413 1411 1411 1410 1410 1410 1410 1411 1411 1412 1411 1411 1410 1410 1411 1411 1412 1412 1413 1414 1415 1416 1417 1418 1418 1419 1419 1419 1419 1419 1420 1422 1423 1424 1425 1426 1427 1427 1428 1428 1428 1429 1429 1429
1456 1454 1452 1450 1448 1446 1444 1442 1439 1438 1435 1433 1431 1428 1426 1424 1423 1421 1419 1418 1417 1415 1414 1413 1412 1411 1410 1409 1408 1408 1408 1409 1409 1410 1410 1410 1409 1409 1409 1409 1410 1410 1411 1411 1412 1413 1414 1414 1415 1416 1417 1417 1417 1417 1418 1419 1420 1421 1422 1423 1424 1424 1425 1426 1426 1427 1427 1427 1427
1455 1453 1452 1450 1448 1445 1443 1441 1439 1437 1434 1432 1430 1428 1425 1423 1422 1420 1418 1417 1415 1414 1413 1412 1411 1410 1409 1408 1407 1406 1406 1407 1407 1408 1408 1408 1408 1408 1408 1408 1408 1408 1409 1409 1410 1411 1412 1412 1413 1413 1414 1415 1415 1416 1416 1417 1418 1420 1421 1421 1422 1423 1423 1424 1424 1424 1425 1425 1425
1455 1453 1451 1449 1447 1445 1443 1441 1438 1436 1434 1431 1429 1427 1425 1423 1420 1419 1417 1415 1414 1413 1412 1411 1410 1408 1408 1407 1406 1405 1404 1405 1405 1405 1406 1406 1406 1406 1407 1407 1407 1407 1407 1408 1408 1409 1410 1410 1411 1411 1412 1413 1413 1414 1415 1416 1417 1418 1419 1420 1421 1421 1422 1422 1422 1423 1423 1423 1423
1454 1453 1451 1449 1447 1445 1443 1440 1438 1436 1433 1431 1429 1427 1424 1422 1420 1418 1416 1414 1413 1412 1411 1410 1409 1408 1407 1406 1405 1404 1403 1403 1403 1403 1404 1404 1404 1404 1405 1405 1405 1405 1405 1406 1407 1407 1408 1408 1409 1409 1410 1411 1412 1413 1413 1414 1415 1417 1418 1418 1419 1420 1421 1421 1421 1421 1421 1421 1422
1454 1452 1451 1449 1447 1445 1443 1440 1438 1436 1433 1431 1428 1426 1424 1422 1419 1417 1415 1414 1412 1411 1409 1408 1408 1407 1406 1405 1404 1403 1403 1402 1402 1402 1402 1403 1403 1403 1403 1403 1403 1403 1403 1404 1405 1405 1406 1407 1407 1408 1409 1410 1411 1411 1412 1413 1413 1415 1416 1417 1418 1418 1419 1419 1420 1420 1420 1420 1420
1454 1452 1450 1448 1447 1445 1443 1440 1438 1436 1433 1431 1428 1426 1424 1422 1419 1417 1415 1413 1412 1410 1409 1408 1407 1407 1406 1405 1404 1403 1403 1402 1401 1401 1401 1402 1402 1402 1402 1402 1402 1402 1402 1402 1403 1403 1404 1405 1405 1406 1407 1408 1409 1410 1410 1411 1412 1413 1414 1415 1416 1417 1418 1418 1418 1419 1419 1418 1418
1454 1452 1450 1448 1447 1444 1443 1440 1438 1436 1433 1431 1429 1426 1424 1422 1419 1417 1415 1413 1411 1410 1408 1407 1407 1406 1406 1405 1404 1403 1403 1402 1402 1401 1401 1401 1402 1402 1402 1402 1402 1402 1402 1402 1402 1402 1403 1403 1403 1404 1405 1407 1407 1408 1408 1409 1410 1412 1413 1414 1415 1416 1416 1417 1417 1417 1417 1417 1417
1454 1452 1450 1449 1447 1445 1443 1440 1438 1436 1433 1431 1429 1427 1424 1422 1419 1417 1415 1413 1412 1410 1409 1408 1407 1406 1405 1404 1403 1403 1403 1402 1402 1402 1401 1401 1402 1402 1402 1402 1402 1402 1402 1402 1402 1402 1402 1402 1402 1403 1404 1405 1405 1406 1407 1408 1409 1410 1411 1412 1413 1414 1415 1415 1416 1416 1416 1416 1416
1454 1453 1451 1449 1447 1445 1443 1441 1438 1436 1434 1432 1429 1427 1424 1422 1420 1418 1415 1414 1412 1411 1409 1408 1407 1406 1405 1404 1403 1403 1403 1403 1403 1402 1401 1401 1402 1402 1402 1402 1402 1402 1402 1402 1402 1402 1401 1401 1401 1402 1402 1403 1403 1404 1405 1406 1408 1409 1410 1411 1412 1413 1414 1414 1414 1414 1415 1415 1415
1454 1453 1451 1449 1447 1445 1443 1441 1439 1437 1434 1432 1430 1428 1425 1423 1421 1418 1417 1415 1413 1412 1410 1408 1407 1406 1405 1404 1404 1403 1403 1402 1401 1401 1401 1401 1401 1401 1402 1402 1401 1401 1401 1401 1401 1401 1401 1401 1400 1401 1401 1401 1402 1403 1403 1405 1406 1408 1409 1410 1411 1412 1413 1413 1413 1414 1414 1414 1414
1455 1453 1451 1449 1448 1445 1443 1441 1439 1437 1435 1433 1430 1428 1425 1423 1422 1420 1418 1416 1414 1413 1411 1410 1408 1407 1406 1405 1404 1403 1403 1402 1401 1401 1401 1401 1401 1401 1402 1402 1402 1402 1402 1401 1401 1401 1401 1400 1400 1400 1400 1400 1400 1401 1403 1404 1405 1407 1408 1409 1410 1411 1412 1412 1413 1413 1413 1413 1414
1455 1453 1452 1449 1448 1445 1443 1441 1439 1437 1435 1433 1431 1428 1426 1424 1423 1421 1419 1417 1415 1414 1412 1411 1409 1408 1407 1406 1405 1404 1403 1403 1402 1402 1402 1402 1402 1403 1403 1403 1403 1403 1403 1403 1402 1402 1402 1401 1401 1401 1401 1400 1400 1401 1402 1403 1405 1406 1408 1408 1410 1410 1411 1412 1412 1413 1413 1413 1413
1455 1453 1452 1449 1448 1445 1443 1441 1439 1438 1436 1434 1432 1429 1427 1425 1424 1422 1420 1419 1417 1415 1413 1412 1411 1410 1408 1408 1406 1405 1404 1404 1404 1404 1404 1404 1404 1404 1403 1403 1403 1404 1404 1404 1404 1404 1403 1403 1402 1402 1401 1400 1400 1401 1402 1403 1405 1406 1407 1408 1409 1410 1410 1411 1412 1412 1412 1413 1413
1455 1453 1452 1450 1448 1445 1443 1441 1440 1438 1436 1434 1432 1430 1428 1427 1425 1423 1422 1420 1418 1417 1415 1413 1412 1411 1410 1409 1408 1407 1406 1405 1405 1405 1405 1405 1405 1405 1405 1404 1405 1405 1405 1405 1405 1405 1404 1404 1403 1403 1402 1401 1401 1402 1403 1404 1405 1406 1407 1408 1409 1409 1410 1410 1411 1411 1411 1412 1412
1455 1453 1452 1450 1448 1446 1444 1442 1440 1438 1437 1435 1433 1431 1429 1428 1426 1424 1423 1422 1420 1418 1417 1415 1414 1413 1412 1410 1409 1408 1408 1407 1407 1407 1407 1407 1407 1407 1406 1406 1406 1407 1407 1407 1406 1406 1405 1404 1404 1403 1403 1402 1402 1403 1403 1404 1406 1407 1408 1408 1409 1409 1409 1410 1410 1410 1410 1410 1410
1455 1453 1452 1450 1448 1446 1444 1442 1440 1439 1437 1435 1433 1432 1430 1428 1427 1425 1423 1422 1421 1420 1418 1417 1416 1414 1413 1412 1411 1410 1409 1408 1408 1408 1408 1408 1408 1408 1408 1407 1407 1408 1408 1408 1408 1407 1406 1405 1405 1404 1403 1403 1403 1404 1404 1405 1406 1407 1408 1408 1408 1408 1409 1409 1409 1409 1409 1409 1409
1455 1453 1452 1450 1448 1446 1444 1443 1441 1439 1438 1436 1434 1433 1431 1429 1428 1426 1424 1423 1422 1420 1419 1418 1418 1417 1415 1414 1413 1412 1411 1410 1410 1409 1409 1408 1408 1408 1408 1409 1409 1409 1409 1409 1408 1408 1407 1406 1406 1405 1405 1405 1405 1405 1406 1406 1407 1408 1408 1408 1408 1408 1408 1409 1409 1409 1408 1408 1408
1455 1454 1452 1450 1448 1447 1445 1443 1441 1439 1438 1437 1435 1433 1431 1429 1429 1427 1426 1424 1423 1422 1421 1420 1419 1418 1417 1416 1415 1414 1413 1412 1412 1411 1411 1410 1410 1409 1409 1409 1410 1410 1410 1410 1409 1409 1408 1408 1407 1406 1406 1406 1406 1406 1406 1407 1407 1407 1407 1407 1408 1408 1408 1408 1408 1408 1408 1408 1408
1456 1454 1452 1450 1448 1447 1445 1443 1442 1440 1438 1437 1435 1434 1432 1430 1429 1428 1427 1425 1423 1423 1422 1421 1420 1419 1418 1417 1416 1416 1415 1414 1413 1413 1412 1412 1411 1411 1410 1410 1410 1411 1411 1411 1410 1409 1409 1409 1408 1407 1407 1407 1406 1406 1407 1407 1407 1407 1407 1407 1407 1407 1407 1407 1407 1407 1407 1407 1407
1456 1454 1452 1450 1449 1447 1445 1443 1442 1440 1438 1437 1436 1434 1433 1431 1430 1429 1428 1427 1425 1423 1423 1421 1420 1419 1418 1418 1417 1416 1416 1415 1414 1414 1413 1413 1413 1412 1412 1411 1411 1411 1411 1411 1411 1410 1410 1409 1409 1408 1408 1408 1407 1407 1407 1407 1407 1407 1407 1407 1407 1407 1407 1407 1407 1407 1407 1407 1406
1456 1454 1452 1451 1449 1447 1445 1444 1442 1440 1439 1437 1436 1435 1433 1432 1431 1430 1429 1428 1426 1425 1423 1422 1421 1420 1419 1418 1417 1416 1416 1415 1415 1414 1414 1414 1413 1413 1412 1412 1412 1411 1411 1411 1411 1411 1411 1410 1410 1409 1409 1408 1408 1408 1407 1407 1407 1407 1407 1407 1407 1407 1407 1407 1407 1407 1406 1406 1406
1456 1454 1452 1451 1449 1447 1445 1444 1442 1441 1439 1438 1436 1435 1434 1433 1431 1430 1429 1429 1428 1426 1425 1423 1422 1421 1420 1419 1418 1417 1416 1416 1415 1415 1414 1414 1413 1413 1413 1412 1412 1412 1412 1412 1412 1412 1412 1411 1410 1409 1409 1409 1408 1408 1408 1407 1407 1407 1407 1408 1408 1407 1407 1407 1407 1406 1406 1406 1406
1456 1454 1452 1451 1449 1447 1445 1443 1442 1440 1439 1438 1436 1435 1434 1433 1432 1431 1430 1429 1428 1428 1426 1425 1423 1422 1421 1420 1419 1418 1417 1417 1416 1415 1415 1414 1414 1413 1413 1413 1413 1413 1413 1413 1412 1412 1412 1411 1410 1409 1409 1409 1409 1408 1408 1408 1407 1407 1407 1408 1408 1408 1407 1407 1406 1406 1406 1406 1407
1456 1454 1453 1451 1449 1447 1445 1444 1442 1440 1439 1438 1436 1435 1434 1433 1433 1432 1430 1429 1428 1428 1427 1426 1424 1423 1422 1421 1420 1419 1418 1418 1417 1416 1416 1415 1415 1414 1414 1413 1413 1413 1413 1413 1413 1412 1412 1411 1410 1409 1409 1409 1409 1409 1408 1408 1408 1408 1408 1408 1408 1408 1407 1407 1407 1406 1406 1407 1407
1456 1454 1453 1451 1449 1448 1446 1444 1442 1441 1439 1438 1437 1436 1435 1434 1433 1432 1431 1430 1428 1428 1428 1427 1425 1424 1423 1422 1421 1420 1419 1419 1418 1417 1417 1416 1416 1415 1414 1414 1414 1413 1413 1413 1413 1412 1412 1411 1410 1409 1409 1409 1409 1409 1409 1408 1408 1408 1408 1408 1408 1408 1408 1407 1407 1407 1407 1407 1407
1456 1455 1453 1451 1449 1448 1446 1444 1443 1441 1439 1438 1437 1436 1435 1434 1433 1433 1431 1430 1429 1428 1428 1428 1426 1425 1424 1423 1422 1421 1420 1420 1419 1418 1418 1417 1416 1416 1415 1415 1414 1413 1413 1413 1413 1413 1412 1410 1409 1409 1409 1409 1409 1409 1409 1409 1409 1409 1408 1408 1408 1408 1408 1408 1408 1408 1407 1407 1407
1457 1455 1453 1452 1450 1448 1447 1445 1443 1442 1440 1439 1438 1437 1436 1435 1434 1433 1432 1431 1430 1429 1428 1428 1427 1426 1425 1424 1423 1422 1421 1420 1420 1419 1418 1418 1417 1417 1416 1415 1415 1414 1413 1413 1413 1413 1412 1410 1410 1409 1410 1410 1410 1410 1410 1410 1409 1409 1409 1409 1409 1408 1408 1408 1408 1407 1407 1407 1407
1457 1455 1454 1452 1450 1449 1447 1445 1444 1443 1441 1440 1438 1437 1436 1435 1434 1433 1432 1431 1430 1429 1429 1428 1428 1427 1426 1424 1423 1423 1422 1421 1420 1420 1419 1418 1418 1418 1417 1416 1415 1415 1414 1414 1414 1413 1412 1411 1411 1411 1411 1410 1410 1410 1410 1410 1410 1409 1409 1409 1409 1408 1408 1408 1408 1407 1407 1406 1406
1458 1456 1454 1452 1451 1449 1448 1446 1444 1443 1442 1440 1439 1438 1437 1436 1434 1433 1432 1431 1430 1430 1429 1428 1428 1427 1426 1425 1424 1423 1423 1422 1421 1421 1420 1419 1418 1418 1417 1417 1416 1415 1415 1414 1414 1414 1413 1412 1412 1411 1411 1411 1411 1410 1410 1410 1410 1409 1409 1409 1408 1408 1408 1408 1408 1407 1407 1407 1407